Regional Weather Roundup
Issued by NWS

Home | Current Version | Previous Version | Text Only | Print | Product List | Glossary Off
Versions: 1 2 3 4 5 6 7 8 9 10 11 12 13 14 15 16 17 18 19 20 21 22 23 24 25 26 27 28 29 30 31 32 33 34 35 36 37 38 39 40 41 42 43 44

000
ASUS45 KSLC 260810
RWRUT

UTAH REGIONAL WEATHER ROUNDUP
NATIONAL WEATHER SERVICE SALT LAKE CITY UT
100 AM MST FRI DEC 26 2014

UTZ001>011-023>025-260900-

NORTHERN UTAH

CITY           SKY/WX    TMP DP  RH WIND       PRES   REMARKS
BRIGHAM CITY   CLOUDY    28  19  70 N7        29.87S WCI  20
HILL AFB       MOCLDY    26  18  71 N6        29.82R WCI  19
LOGAN          CLOUDY    20  16  84 N8        29.88R WCI  10
OGDEN          CLOUDY    28  18  66 N12G22    29.82S WCI  18
PROVO AIRPORT  MOCLDY    27  21  80 NW15      29.81R WCI  15
SALT LAKE CITY CLOUDY    27  23  85 W3        29.83S
VERNAL         CLOUDY    25  12  58 NE9       29.72F WCI  15
WENDOVER       PTCLDY    28  14  54 NW24G32   29.92S WCI  14
HEBER CITY     CLOUDY    23  18  80 E6        29.75S WCI  16
WEST JORDAN    CLOUDY    27  27 100 NW9       29.82S WCI  17

$$

UTZ012>022-026-027-260900-

SOUTHERN/CENTRAL UTAH

CITY           SKY/WX    TMP DP  RH WIND       PRES   REMARKS
BLANDING       CLEAR     18  16  92 W5        29.75R WCI  11
BRYCE CANYON   CLOUDY    13   8  81 N7        29.70S WCI   3
CEDAR CITY     CLOUDY    20  17  88 CALM      29.80S
DELTA          CLOUDY    26  22  85 NW8       29.83S WCI  17
MILFORD        LGT SNOW  25  21  85 N13       29.83S FOG     WCI  14
MOAB/CYNLANDS  LGT SNOW  27  26  96 CALM      29.71R FOG
PRICE          CLOUDY    26  12  55 N8        29.68S WCI  18
ST GEORGE      MOSUNNY   30  19  64 SE8       29.87S WCI  23
KANAB          MOCLDY    21  21 100 CALM      29.82R

$$

REGIONAL REPORTS     COLORADO/ARIZONA

CITY           SKY/WX    TMP DP  RH WIND       PRES   REMARKS
CRAIG, CO      CLOUDY    20  17  88 W13       29.69R WCI   7
GRAND JUNCTION FLURRIES  26  25  96 N6        29.70S WCI  19
RIFLE          LGT SNOW  26  23  88 CALM      29.68R FOG
MONTROSE       CLOUDY    26  23  88 N6        29.70S WCI  19
CORTEZ         MOCLDY    19  15  84 E3        29.68S
PAGE, AZ       CLOUDY    32  13  45 NW3       29.74R
GRAND CANYON   LGT SNOW  20  17  88 CALM      29.73S FOG
KINGMAN        CLEAR     29  15  56 S5        29.86S WCI  24
FLAGSTAFF      CLEAR     16   7  67 W3        29.71R

$$

REGIONAL REPORTS    NEVADA/IDAHO/WYOMING

CITY           SKY/WX    TMP DP  RH WIND       PRES   REMARKS
LAS VEGAS, NV  CLEAR     44  11  26 NW12      29.89R
ELY            MOCLDY    14  10  84 W10       29.89S WCI   1
ELKO           CLOUDY    24  16  71 CALM      29.99F
POCATELLO, ID  PTCLDY    18  11  74 N7        29.93S WCI   9
BURLEY         PTCLDY    24  18  77 W12G20    29.94S WCI  13
EVANSTON, WY   CLOUDY    15  10  80 NE10      29.75R WCI   2
ROCK SPRINGS   CLOUDY    13   8  81 NE18G28   29.76S WCI  -4

$$



USA.gov is the U.S. government's official web portal to all federal, state and local government web resources and services.